Voltar ao catálogo

ICEYE-X43

AtivoCiênciaSSO
NORAD 60539·PAYLOAD·🇧🇷 Brazil

Lançado Aug 16, 2024 de Vandenberg Space Force Base

Loading…

Próximas Passagens (próximas 24 horas)

TLE

AtualizadoSource: Space-Track

Época: Sep 14, 2026, 11:52 UTC

1 60539U 24149BZ  26257.49452444  .00002955  00000-0  24195-3 0  9996
2 60539  97.6715 333.2141 0010667 102.7672 257.4744 15.00027028113500

Acompanhe ICEYE-X43 em tempo real com AllMySat

Download on the App Store